timestamp,surface_pressure_avg,surface_temp_avg,battery_voltage,lat,long
2020-04-27 00:09:01+00:00,317.188,2.6,13.13,47.84626,-54.09684
2020-04-27 00:19:01+00:00,318.718,2.6,12.81,47.84626,-54.09684
2020-04-27 00:29:01+00:00,324.843,2.59,12.81,47.84626,-54.09684
2020-04-27 00:39:01+00:00,331.6479,2.4,12.81,47.84626,-54.09684
2020-04-27 00:49:01+00:00,334.2646,2.4,12.81,47.84626,-54.09684
2020-04-27 00:59:01+00:00,340.1863,2.4,12.81,47.84626,-54.09684
2020-04-27 01:09:01+00:00,345.8179,2.4,12.81,47.84626,-54.09684
2020-04-27 01:19:01+00:00,348.8679,2.4,12.65,47.84626,-54.09684
2020-04-27 01:29:01+00:00,350.588,2.46,12.65,47.84626,-54.09684
2020-04-27 01:39:01+00:00,355.4547,2.5,12.65,47.84626,-54.09684
2020-04-27 01:49:01+00:00,358.3747,2.5,12.65,47.84626,-54.09684
2020-04-27 01:59:01+00:00,355.4496,2.5,12.65,47.84626,-54.09684
2020-04-27 02:09:01+00:00,353.3463,2.57,12.65,47.84626,-54.09684
2020-04-27 02:19:01+00:00,350.5029,2.5,12.65,47.84626,-54.09684
2020-04-27 02:29:01+00:00,347.0596,2.5,12.65,47.84626,-54.09684
2020-04-27 02:39:01+00:00,346.9663,2.5,12.65,47.84626,-54.09684
2020-04-27 02:49:01+00:00,346.8263,2.49,12.65,47.84626,-54.09684
2020-04-27 02:59:01+00:00,343.18300000000005,2.45,12.65,47.84626,-54.09684
2020-04-27 03:09:01+00:00,339.1863,2.4,12.65,47.84626,-54.09684
2020-04-27 03:19:01+00:00,338.7897,2.4,12.65,47.84626,-54.09684
2020-04-27 03:29:01+00:00,338.7996,2.4,12.65,47.84626,-54.09684
2020-04-27 03:39:01+00:00,335.9563,2.5,12.65,47.84626,-54.09684
2020-04-27 03:49:01+00:00,331.7562,2.6,12.65,47.84626,-54.09684
2020-04-27 03:59:01+00:00,327.2646,2.61,12.65,47.84626,-54.09684
2020-04-27 04:09:01+00:00,321.533,2.6,12.65,47.84626,-54.09684
2020-04-27 04:19:01+00:00,312.3247,2.62,12.65,47.84626,-54.09684
2020-04-27 04:29:01+00:00,301.2347,2.6,12.65,47.84626,-54.09684
2020-04-27 04:39:01+00:00,296.3914,2.6,12.65,47.84626,-54.09684
2020-04-27 04:49:01+00:00,292.9114,2.6,12.65,47.84626,-54.09684
2020-04-27 04:59:01+00:00,286.5898,2.6,12.65,47.84626,-54.09684
2020-04-27 05:09:01+00:00,281.2047,2.6,12.65,47.84626,-54.09684
2020-04-27 05:19:01+00:00,277.7947,2.6,12.57,47.84626,-54.09684
2020-04-27 05:29:01+00:00,267.3698,2.64,12.57,47.84626,-54.09684
2020-04-27 05:39:01+00:00,258.3481,2.7,12.57,47.84626,-54.09684
2020-04-27 05:49:01+00:00,251.4847,2.7,12.57,47.84626,-54.09684
2020-04-27 05:59:01+00:00,240.0331,2.77,12.57,47.84626,-54.09684
2020-04-27 06:09:01+00:00,225.3848,2.8,12.57,47.84626,-54.09684
2020-04-27 06:19:01+00:00,213.8865,2.8,12.57,47.84626,-54.09684
2020-04-27 06:29:01+00:00,206.4131,2.8,12.57,47.84626,-54.09684
2020-04-27 06:39:01+00:00,199.0148,2.8,12.57,47.84626,-54.09684
2020-04-27 06:49:01+00:00,194.6348,2.8,12.57,47.84626,-54.09684
2020-04-27 06:59:01+00:00,189.6365,2.8,12.57,47.84626,-54.09684
2020-04-27 07:09:01+00:00,184.9464,2.8,12.57,47.84626,-54.09684
2020-04-27 07:19:01+00:00,180.7165,2.8,12.57,47.84626,-54.09684
2020-04-27 07:29:01+00:00,179.4715,2.8,12.57,47.84626,-54.09684
2020-04-27 07:39:01+00:00,180.0381,2.8,12.57,47.84626,-54.09684
2020-04-27 07:49:01+00:00,176.6031,2.8,12.57,47.84626,-54.09684
2020-04-27 07:59:01+00:00,173.5898,2.8,12.57,47.84626,-54.09684
2020-04-27 08:09:01+00:00,173.1448,2.8,12.57,47.84626,-54.09684
2020-04-27 08:19:01+00:00,174.4749,2.76,12.57,47.84626,-54.09684
2020-04-27 08:29:01+00:00,176.7515,2.78,12.57,47.84626,-54.09684
2020-04-27 08:39:01+00:00,178.9965,2.79,12.57,47.84626,-54.09684
2020-04-27 08:49:01+00:00,184.2848,2.76,12.57,47.84626,-54.09684
2020-04-27 08:59:01+00:00,191.4948,2.73,12.57,47.84626,-54.09684
2020-04-27 09:09:01+00:00,194.6847,2.73,12.57,47.84626,-54.09684
2020-04-27 09:19:01+00:00,192.6448,2.77,12.57,47.84626,-54.09684
2020-04-27 09:29:01+00:00,194.7731,2.8,12.57,47.84626,-54.09684
2020-04-27 09:39:01+00:00,204.3414,2.79,12.57,47.84626,-54.09684
2020-04-27 09:49:01+00:00,208.6314,2.79,12.57,47.84626,-54.09684
2020-04-27 09:59:01+00:00,207.3198,2.8,12.57,47.84626,-54.09684
2020-04-27 10:09:01+00:00,215.2164,2.8,12.57,47.84626,-54.09684
2020-04-27 10:19:01+00:00,224.8264,2.8,13.21,47.84626,-54.09684
2020-04-27 10:29:01+00:00,229.6564,2.8,13.21,47.84626,-54.09684
2020-04-27 10:39:01+00:00,234.1481,2.8,13.21,47.84626,-54.09684
2020-04-27 10:49:01+00:00,240.0914,2.8,13.21,47.84626,-54.09684
2020-04-27 10:59:01+00:00,239.2097,2.8,13.21,47.84626,-54.09684
2020-04-27 11:09:01+00:00,234.5031,2.8,13.21,47.84626,-54.09684
2020-04-27 11:19:01+00:00,236.4515,2.8,13.84,47.84626,-54.09684
2020-04-27 11:29:01+00:00,239.7914,2.8,13.84,47.84626,-54.09684
2020-04-27 11:39:01+00:00,239.2798,2.83,13.84,47.84626,-54.09684
2020-04-27 11:49:01+00:00,240.4798,2.83,13.84,47.84626,-54.09684
2020-04-27 11:59:01+00:00,255.4181,2.84,13.84,47.84626,-54.09684
2020-04-27 12:09:01+00:00,268.218,2.86,13.84,47.84626,-54.09684
2020-04-27 12:19:01+00:00,274.1265,2.88,14.16,47.84626,-54.09684
2020-04-27 12:29:01+00:00,280.0014,2.88,14.16,47.84626,-54.09684
2020-04-27 12:39:01+00:00,290.7014,2.88,14.16,47.84626,-54.09684
2020-04-27 12:49:01+00:00,287.8763,2.89,14.16,47.84626,-54.09684
2020-04-27 12:59:01+00:00,278.7697,2.9,14.16,47.84626,-54.09684
2020-04-27 13:09:01+00:00,282.3281,2.9,14.16,47.84626,-54.09684
2020-04-27 13:19:01+00:00,286.4131,2.9,14.32,47.84626,-54.09684
2020-04-27 13:29:01+00:00,280.793,2.9,14.32,47.84626,-54.09684
2020-04-27 13:39:01+00:00,279.8814,2.9,14.32,47.84626,-54.09684
2020-04-27 13:49:01+00:00,297.848,2.7,14.32,47.84626,-54.09684
2020-04-27 13:59:01+00:00,309.5664,2.66,14.32,47.84626,-54.09684
2020-04-27 14:09:01+00:00,303.9447,2.77,14.32,47.84626,-54.09684
2020-04-27 14:19:01+00:00,302.328,2.79,14.48,47.84626,-54.09684
2020-04-27 14:29:01+00:00,307.2046,2.6,14.48,47.84626,-54.09684
2020-04-27 14:39:01+00:00,307.6047,2.6,14.48,47.84626,-54.09684
2020-04-27 14:49:01+00:00,300.573,2.66,14.48,47.84626,-54.09684
2020-04-27 14:59:01+00:00,297.5814,2.7,14.48,47.84626,-54.09684
2020-04-27 15:09:01+00:00,299.6514,2.7,14.48,47.84626,-54.09684
2020-04-27 15:19:01+00:00,289.163,2.79,14.4,47.84626,-54.09684
2020-04-27 15:29:01+00:00,282.8247,2.9,14.4,47.84626,-54.09684
2020-04-27 15:39:01+00:00,285.9631,2.9,14.4,47.84626,-54.09684
2020-04-27 15:49:01+00:00,293.0348,2.9,14.4,47.84626,-54.09684
2020-04-27 15:59:01+00:00,292.0464,2.91,14.4,47.84626,-54.09684
2020-04-27 16:09:01+00:00,297.4247,2.91,14.4,47.84626,-54.09684
2020-04-27 16:19:01+00:00,300.1797,2.9,14.48,47.84626,-54.09684
2020-04-27 16:29:01+00:00,295.5164,2.97,14.48,47.84626,-54.09684
2020-04-27 16:39:01+00:00,285.3147,3.0,14.48,47.84626,-54.09684
2020-04-27 16:49:01+00:00,281.613,3.0,14.48,47.84626,-54.09684
2020-04-27 16:59:01+00:00,270.9964,3.03,14.48,47.84626,-54.09684
2020-04-27 17:09:01+00:00,263.2465,3.06,14.48,47.84626,-54.09684
2020-04-27 17:19:01+00:00,260.4197,3.1,14.48,47.84626,-54.09684
2020-04-27 17:29:01+00:00,253.2214,3.1,14.48,47.84626,-54.09684
2020-04-27 17:39:01+00:00,236.2831,3.3,14.48,47.84626,-54.09684
2020-04-27 17:49:01+00:00,221.2614,3.4,14.48,47.84626,-54.09684
2020-04-27 17:59:01+00:00,220.2848,3.3,14.48,47.84626,-54.09684
2020-04-27 18:09:01+00:00,222.1664,3.2,14.48,47.84626,-54.09684
2020-04-27 18:19:01+00:00,216.3231,3.1,14.32,47.84626,-54.09684
2020-04-27 18:29:01+00:00,210.1064,3.06,14.32,47.84626,-54.09684
2020-04-27 18:39:01+00:00,206.9015,3.08,14.32,47.84626,-54.09684
2020-04-27 18:49:01+00:00,198.1781,3.1,14.32,47.84626,-54.09684
2020-04-27 18:59:01+00:00,186.9514,3.16,14.32,47.84626,-54.09684
2020-04-27 19:09:01+00:00,178.9898,3.2,14.32,47.84626,-54.09684
2020-04-27 19:19:01+00:00,176.3848,3.2,14.16,47.84626,-54.09684
2020-04-27 19:29:01+00:00,172.3848,3.2,14.16,47.84626,-54.09684
2020-04-27 19:39:01+00:00,165.5681,3.22,14.16,47.84626,-54.09684
2020-04-27 19:49:01+00:00,169.0781,3.24,14.16,47.84626,-54.09684
2020-04-27 19:59:01+00:00,176.1081,3.22,14.16,47.84626,-54.09684
2020-04-27 20:09:01+00:00,180.3948,3.23,14.16,47.84626,-54.09684
2020-04-27 20:19:01+00:00,187.6965,3.29,14.0,47.84626,-54.09684
2020-04-27 20:29:01+00:00,198.2714,3.46,14.0,47.84626,-54.09684
2020-04-27 20:39:01+00:00,203.2614,3.68,14.0,47.84626,-54.09684
2020-04-27 20:49:01+00:00,204.7614,3.69,14.0,47.84626,-54.09684
2020-04-27 20:59:01+00:00,207.9081,3.6,14.0,47.84626,-54.09684
2020-04-27 21:09:01+00:00,210.0081,3.58,14.0,47.84626,-54.09684
2020-04-27 21:19:01+00:00,211.7514,3.55,13.92,47.84626,-54.09684
2020-04-27 21:29:01+00:00,215.2348,3.6,13.92,47.84626,-54.09684
2020-04-27 21:39:01+00:00,218.7931,3.6,13.92,47.84626,-54.09684
2020-04-27 21:49:01+00:00,221.2181,3.68,13.92,47.84626,-54.09684
2020-04-27 21:59:01+00:00,226.1131,3.8,13.92,47.84626,-54.09684
2020-04-27 22:09:01+00:00,233.3347,3.79,13.92,47.84626,-54.09684
2020-04-27 22:19:01+00:00,243.3247,3.8,13.6,47.84626,-54.09684
2020-04-27 22:29:01+00:00,252.143,3.8,13.6,47.84626,-54.09684
2020-04-27 22:39:01+00:00,253.5948,4.1,13.6,47.84626,-54.09684
2020-04-27 22:49:01+00:00,250.9881,4.2,13.6,47.84626,-54.09684
2020-04-27 22:59:01+00:00,253.3882,4.02,13.6,47.84626,-54.09684
2020-04-27 23:09:01+00:00,256.0147,4.1,13.6,47.84626,-54.09684
2020-04-27 23:19:01+00:00,257.0114,4.0,13.21,47.84626,-54.09684
2020-04-27 23:29:01+00:00,259.1164,4.1,13.21,47.84626,-54.09684
2020-04-27 23:39:01+00:00,264.2347,3.86,13.21,47.84626,-54.09684
2020-04-27 23:49:01+00:00,265.7463,3.6,13.21,47.84626,-54.09684
2020-04-27 23:59:01+00:00,268.9615,3.5,13.21,47.84626,-54.09684
